CW2468 Weather Reports


time (UTC)temp
F
wind
direction
speed
knots
gust
knots
rain 1hr
in
rain 24hr
in
rain mn
in
humidity
%
barometer
mb
20260506033611 69 140 0.0 0.9 0.00 0.00 0.00 50 1012.6
20260506033108 70 121 0.0 0.9 0.00 0.00 0.00 49 1012.8
20260506032605 70 140 0.9 0.9 0.00 0.00 0.00 49 1012.6
20260506032102 70 138 0.0 0.0 0.00 0.00 0.00 48 1012.4
20260506031559 71 139 0.9 2.6 0.00 0.00 0.00 47 1012.6
20260506031056 71 138 0.0 0.9 0.00 0.00 0.00 46 1012.8
20260506030555 71 131 0.0 0.9 0.00 0.00 0.00 46 1012.8
20260506030051 70 191 0.0 0.9 0.00 0.00 0.00 45 1012.8
20260506025548 70 142 0.0 0.9 0.00 0.00 0.00 45 1012.9
20260506025044 70 142 0.0 0.9 0.00 0.00 0.00 45 1012.9
20260506024541 70 196 0.0 1.7 0.00 0.00 0.00 44 1013.1
20260506024038 70 197 0.0 0.9 0.00 0.00 0.00 44 1012.7
20260506023534 70 205 1.7 2.6 0.00 0.00 0.00 44 1012.9
20260506023032 70 139 0.0 0.9 0.00 0.00 0.00 44 1012.7
20260506022529 70 137 0.9 0.9 0.00 0.00 0.00 45 1012.8
20260506022026 70 124 0.0 0.9 0.00 0.00 0.00 44 1012.7
20260506021524 71 142 0.0 0.9 0.00 0.00 0.00 44 1012.6
20260506021021 71 147 0.0 0.9 0.00 0.00 0.00 42 1012.7
20260506020518 71 133 0.0 0.9 0.00 0.00 0.00 43 1012.5
20260506020016 71 137 0.0 0.9 0.00 0.00 0.00 42 1012.2
20260506015513 71 133 0.9 0.9 0.00 0.00 0.00 41 1012.2
20260506015010 72 138 0.0 0.0 0.00 0.00 0.00 41 1012.4
20260506014507 72 199 0.0 1.7 0.00 0.00 0.00 41 1012.6
20260506014003 72 197 0.0 0.9 0.00 0.00 0.00 40 1012.6
20260506013501 72 189 0.9 2.6 0.00 0.00 0.00 40 1012.5
20260506012957 71 198 0.9 1.7 0.00 0.00 0.00 41 1012.7
20260506012453 71 180 0.0 1.7 0.00 0.00 0.00 41 1012.3
20260506011951 71 131 0.0 0.0 0.00 0.00 0.00 41 1012.2
20260506011448 72 131 0.0 0.0 0.00 0.00 0.00 41 1012.3
20260506010944 72 145 0.9 0.9 0.00 0.00 0.00 40 1012.3
20260506010444 72 124 0.0 1.7 0.00 0.00 0.00 39 1012.4
20260506005939 72 204 0.9 1.7 0.00 0.00 0.00 39 1012.5
20260506005437 72 142 0.0 0.0 0.00 0.00 0.00 39 1012.4
20260506004932 73 151 1.7 1.7 0.00 0.00 0.00 39 1012.4
20260506004431 73 140 0.0 0.9 0.00 0.00 0.00 38 1012.4
20260506003926 73 137 0.0 1.7 0.00 0.00 0.00 38 1012.6
20260506003423 73 136 0.0 2.6 0.00 0.00 0.00 38 1012.6
20260506002920 74 189 0.0 2.6 0.00 0.00 0.00 38 1012.5
20260506002416 74 127 1.7 2.6 0.00 0.00 0.00 37 1012.6
20260506001911 74 195 0.9 1.7 0.00 0.00 0.00 37 1012.5
20260506001408 74 209 2.6 4.3 0.00 0.00 0.00 37 1012.5
20260506000906 74 192 0.9 6.1 0.00 0.00 0.00 37 1012.5
20260506000403 74 166 2.6 2.6 0.00 0.00 0.00 37 1012.4
20260505235859 75 205 0.9 1.7 0.00 0.00 0.00 38 1012.3
20260505235358 75 126 0.9 7.0 0.00 0.00 0.00 37 1012.2
20260505234854 75 145 0.0 1.7 0.00 0.00 0.00 38 1012.2
20260505234352 75 164 1.7 1.7 0.00 0.00 0.00 37 1012.5
20260505233848 75 152 0.9 2.6 0.00 0.00 0.00 37 1012.3
20260505233346 76 180 0.9 1.7 0.00 0.00 0.00 37 1012.5
20260505232844 76 125 0.9 4.3 0.00 0.00 0.00 37 1012.4
20260505232342 77 203 0.0 1.7 0.00 0.00 0.00 37 1012.4
20260505231838 77 183 0.9 1.7 0.00 0.00 0.00 37 1012.3
20260505231335 78 140 0.9 2.6 0.00 0.00 0.00 37 1012.3
20260505230833 78 145 0.0 1.7 0.00 0.00 0.00 36 1012.2
20260505230330 78 143 2.6 4.3 0.00 0.00 0.00 35 1012.1
20260505225827 78 210 0.9 2.6 0.00 0.00 0.00 35 1012.2
20260505225325 79 163 0.0 0.9 0.00 0.00 0.00 37 1012.0
20260505224819 78 112 2.6 5.2 0.00 0.00 0.00 36 1012.0
20260505224317 79 141 0.0 0.9 0.00 0.00 0.00 37 1012.1
20260505223814 79 134 0.9 1.7 0.00 0.00 0.00 36 1011.9
20260505223311 78 138 0.9 1.7 0.00 0.00 0.00 37 1012.1
20260505222807 79 130 1.7 1.7 0.00 0.00 0.00 35 1012.0
20260505222305 78 136 0.9 4.3 0.00 0.00 0.00 36 1012.2
20260505221800 78 223 3.5 4.3 0.00 0.00 0.00 35 1012.2
20260505221257 78 159 0.9 1.7 0.00 0.00 0.00 35 1012.0
20260505220754 78 134 0.9 2.6 0.00 0.00 0.00 35 1012.0
20260505220251 79 198 2.6 6.1 0.00 0.00 0.00 33 1012.1
20260505215749 80 166 1.7 11.3 0.00 0.00 0.00 34 1012.0
20260505215247 80 187 2.6 4.3 0.00 0.00 0.00 33 1011.8
20260505214744 80 126 1.7 2.6 0.00 0.00 0.00 34 1012.1
20260505214242 80 209 1.7 4.3 0.00 0.00 0.00 32 1012.4
20260505213739 81 153 0.9 5.2 0.00 0.00 0.00 34 1012.0
20260505213236 80 219 2.6 6.1 0.00 0.00 0.00 33 1012.0
20260505212732 80 217 1.7 7.0 0.00 0.00 0.00 33 1012.2
20260505212229 78 134 0.9 4.3 0.00 0.00 0.00 35 1012.3
20260505211726 80 173 2.6 8.7 0.00 0.00 0.00 34 1012.3
20260505211224 79 146 0.9 7.8 0.00 0.00 0.00 35 1012.2
20260505210720 80 199 0.9 5.2 0.00 0.00 0.00 34 1012.3
20260505210217 81 167 1.7 2.6 0.00 0.00 0.00 34 1012.2
20260505205714 79 136 0.9 2.6 0.00 0.00 0.00 34 1012.1
20260505205212 79 155 2.6 5.2 0.00 0.00 0.00 34 1012.4
20260505204708 80 206 8.7 12.2 0.00 0.00 0.00 34 1012.5
20260505204206 80 224 1.7 5.2 0.00 0.00 0.00 35 1012.6
20260505203658 81 206 3.5 5.2 0.00 0.00 0.00 35 1012.5
20260505203154 79 177 1.7 6.1 0.00 0.00 0.00 35 1012.7
20260505202650 79 150 2.6 7.0 0.00 0.00 0.00 35 1012.8
20260505202146 81 89 0.9 4.3 0.00 0.00 0.00 33 1012.7
20260505201643 80 232 2.6 7.8 0.00 0.00 0.00 34 1012.8
20260505201141 79 217 3.5 7.8 0.00 0.00 0.00 35 1012.8
20260505200639 80 222 1.7 4.3 0.00 0.00 0.00 34 1013.0
20260505200136 79 158 1.7 4.3 0.00 0.00 0.00 34 1013.0
20260505195632 79 209 3.5 6.1 0.00 0.00 0.00 35 1013.2
20260505195129 80 147 0.0 4.3 0.00 0.00 0.00 34 1013.4
20260505194626 80 154 0.9 4.3 0.00 0.00 0.00 35 1013.3
20260505194121 78 150 0.9 1.7 0.00 0.00 0.00 35 1013.5
20260505193619 78 119 3.5 5.2 0.00 0.00 0.00 36 1013.4
20260505193116 80 136 0.9 2.6 0.00 0.00 0.00 34 1013.5
20260505192615 78 188 1.7 7.0 0.00 0.00 0.00 36 1013.5
20260505192111 78 193 1.7 2.6 0.00 0.00 0.00 35 1013.3
20260505191610 77 210 1.7 6.1 0.00 0.00 0.00 38 1013.5
20260505191107 78 111 0.9 2.6 0.00 0.00 0.00 37 1013.7
20260505190602 78 140 1.7 5.2 0.00 0.00 0.00 38 1013.5
20260505190058 78 230 2.6 4.3 0.00 0.00 0.00 38 1013.7
20260505185555 77 152 0.9 1.7 0.00 0.00 0.00 37 1013.6
20260505185051 76 151 0.9 4.3 0.00 0.00 0.00 37 1013.5
20260505184548 76 242 4.3 7.0 0.00 0.00 0.00 38 1013.9
20260505184045 77 193 7.0 8.7 0.00 0.00 0.00 38 1013.8
20260505183541 77 224 3.5 6.1 0.00 0.00 0.00 37 1013.6
20260505183039 77 99 0.9 2.6 0.00 0.00 0.00 37 1013.9
20260505182535 77 136 1.7 9.6 0.00 0.00 0.00 38 1014.0
20260505182032 78 212 2.6 4.3 0.00 0.00 0.00 37 1013.9
20260505181529 77 63 1.7 5.2 0.00 0.00 0.00 38 1014.3
20260505181026 76 145 0.0 4.3 0.00 0.00 0.00 39 1014.3
20260505180521 76 219 1.7 6.1 0.00 0.00 0.00 39 1014.4
20260505180020 76 151 0.9 5.2 0.00 0.00 0.00 39 1014.7
20260505175514 76 208 4.3 7.8 0.00 0.00 0.00 39 1014.6
20260505175012 76 190 2.6 4.3 0.00 0.00 0.00 39 1014.8
20260505174509 76 246 3.5 7.8 0.00 0.00 0.00 39 1014.7
20260505174005 77 217 3.5 7.8 0.00 0.00 0.00 38 1014.7
20260505173501 77 114 2.6 5.2 0.00 0.00 0.00 40 1015.1
20260505172958 75 89 3.5 7.8 0.00 0.00 0.00 39 1015.2
20260505172457 76 110 2.6 7.0 0.00 0.00 0.00 40 1015.0
20260505171957 76 111 2.6 2.6 0.00 0.00 0.00 43 1015.0
20260505171453 76 141 2.6 4.3 0.00 0.00 0.00 39 1015.0
20260505170950 77 188 3.5 6.1 0.00 0.00 0.00 38 1015.1
20260505170446 75 135 0.0 5.2 0.00 0.00 0.00 40 1015.1
20260505165942 75 146 1.7 2.6 0.00 0.00 0.00 40 1014.8
20260505165438 76 182 1.7 7.8 0.00 0.00 0.00 39 1015.1
20260505164934 75 189 1.7 4.3 0.00 0.00 0.00 39 1015.0
20260505164431 76 233 3.5 7.8 0.00 0.00 0.00 41 1014.9
20260505163928 76 292 3.5 5.2 0.00 0.00 0.00 40 1014.9
20260505163427 75 208 1.7 9.6 0.00 0.00 0.00 41 1015.0
20260505162926 75 136 0.9 5.2 0.00 0.00 0.00 41 1015.0
20260505162421 75 146 1.7 2.6 0.00 0.00 0.00 42 1014.9
20260505161918 75 207 2.6 7.0 0.00 0.00 0.00 42 1014.9
20260505161415 74 151 1.7 2.6 0.00 0.00 0.00 45 1015.0
20260505160912 73 166 2.6 6.1 0.00 0.00 0.00 46 1015.2
20260505160410 74 142 1.7 4.3 0.00 0.00 0.00 45 1015.4
20260505153349 73 134 1.7 6.1 0.00 0.00 0.00 45 1015.3
20260505152846 73 127 1.7 2.6 0.00 0.00 0.00 46 1015.3
20260505152338 73 213 3.5 6.1 0.00 0.00 0.00 48 1015.3
20260505151837 73 194 4.3 5.2 0.00 0.00 0.00 49 1015.2
20260505151334 72 199 0.0 5.2 0.00 0.00 0.00 51 1015.3
20260505150831 71 122 0.9 1.7 0.00 0.00 0.00 53 1015.1
20260505150329 71 151 1.7 4.3 0.00 0.00 0.00 53 1015.5
20260505140247 66 199 1.7 1.7 0.00 0.00 0.00 63 1015.2
20260505130211 59 174 0.0 0.9 0.00 0.00 0.00 73 1014.8
20260505124701 56 174 0.0 0.0 0.00 0.00 0.00 79 1014.8
20260505124157 56 174 0.0 0.0 0.00 0.00 0.00 80 1014.9
20260505123653 55 174 0.0 0.0 0.00 0.00 0.00 81 1014.8
20260505123150 55 174 0.0 0.0 0.00 0.00 0.00 81 1014.7
20260505122647 55 174 0.0 0.0 0.00 0.00 0.00 83 1014.7
20260505122144 54 174 0.0 0.0 0.00 0.00 0.00 84 1014.4
20260505121641 54 174 0.0 0.0 0.00 0.00 0.00 84 1014.3
20260505121137 53 174 0.0 0.0 0.00 0.00 0.00 84 1014.3
20260505120634 53 174 0.0 0.0 0.00 0.00 0.00 85 1014.4
20260505120130 53 174 0.0 0.0 0.00 0.00 0.00 85 1014.6
20260505115624 52 174 0.0 0.0 0.00 0.00 0.00 86 1014.6
20260505115121 52 174 0.0 0.0 0.00 0.00 0.00 86 1014.4
20260505114612 51 174 0.0 0.0 0.00 0.00 0.00 86 1014.4
20260505114109 51 174 0.0 0.0 0.00 0.00 0.00 86 1014.2
20260505113605 51 174 0.0 0.0 0.00 0.00 0.00 86 1014.1
20260505113102 51 174 0.0 0.0 0.00 0.00 0.00 86 1013.9
20260505112558 50 173 0.0 0.9 0.00 0.00 0.00 86 1013.9
20260505112056 50 173 0.0 0.9 0.00 0.00 0.00 86 1013.8
20260505111549 50 173 0.0 0.0 0.00 0.00 0.00 86 1013.8
20260505111046 50 173 0.0 0.0 0.00 0.00 0.00 86 1013.8
20260505110543 50 173 0.0 0.0 0.00 0.00 0.00 86 1013.6
20260505102009 51 173 0.0 0.9 0.00 0.00 0.00 84 1013.6
20260505101508 51 173 0.0 0.0 0.00 0.00 0.00 84 1013.5
20260505101004 51 173 0.0 0.0 0.00 0.00 0.00 84 1013.8
20260505100501 51 173 0.0 0.9 0.00 0.00 0.00 84 1013.8
20260505095957 51 173 0.9 0.9 0.00 0.00 0.00 83 1014.0
20260505095454 52 173 0.0 0.0 0.00 0.00 0.00 83 1013.8
20260505094950 52 173 0.0 0.9 0.00 0.00 0.00 83 1014.0
20260505094447 52 173 0.9 0.9 0.00 0.00 0.00 83 1013.8
20260505093943 52 173 0.0 0.0 0.00 0.00 0.00 83 1013.7
20260505093440 52 173 0.0 0.0 0.00 0.00 0.00 82 1013.6
20260505092937 53 173 0.0 0.9 0.00 0.00 0.00 82 1013.5
20260505092435 52 173 0.0 1.7 0.00 0.00 0.00 81 1013.8
20260505091932 52 159 0.0 1.7 0.00 0.00 0.00 83 1013.7
20260505091430 52 159 0.0 0.0 0.00 0.00 0.00 83 1013.7
20260505090927 52 159 0.0 0.0 0.00 0.00 0.00 83 1013.9
20260505090426 52 159 0.0 0.0 0.00 0.00 0.00 83 1013.9
20260505085922 52 159 0.0 0.0 0.00 0.00 0.00 83 1013.9
20260505085420 52 159 0.0 0.0 0.00 0.00 0.00 83 1014.0
20260505084918 52 159 0.0 0.0 0.00 0.00 0.00 82 1014.0
20260505084416 52 159 0.0 0.0 0.00 0.00 0.00 82 1014.0
20260505083914 52 159 0.0 0.0 0.00 0.00 0.00 83 1014.0
20260505083411 52 159 0.0 0.9 0.00 0.00 0.00 83 1013.9
20260505082907 52 159 0.0 0.0 0.00 0.00 0.00 82 1013.8
20260505082403 52 159 0.0 0.0 0.00 0.00 0.00 82 1013.8
20260505081900 52 159 0.0 0.0 0.00 0.00 0.00 82 1013.8
20260505081357 52 159 0.0 0.0 0.00 0.00 0.00 82 1014.0
20260505080853 52 159 0.0 0.0 0.00 0.00 0.00 82 1013.9
20260505080350 53 159 0.0 0.0 0.00 0.00 0.00 82 1014.0
20260505075845 53 159 0.0 0.0 0.00 0.00 0.00 81 1014.0
20260505075342 53 159 0.0 0.0 0.00 0.00 0.00 81 1013.9
20260505074839 52 159 0.0 0.0 0.00 0.00 0.00 81 1013.9
20260505074336 53 159 0.0 0.0 0.00 0.00 0.00 81 1013.8
20260505073834 53 160 0.0 0.0 0.00 0.00 0.00 81 1013.8
20260505073332 53 160 0.0 0.0 0.00 0.00 0.00 81 1013.6
20260505072829 53 160 0.0 0.0 0.00 0.00 0.00 80 1013.8
20260505072325 53 160 0.0 0.0 0.00 0.00 0.00 80 1013.7
20260505071821 53 160 0.0 0.0 0.00 0.00 0.00 80 1013.8
20260505071317 53 160 0.0 0.0 0.00 0.00 0.00 80 1013.6
20260505070815 53 160 0.0 0.0 0.00 0.00 0.00 80 1013.8
20260505070312 53 160 0.0 0.0 0.00 0.00 0.00 79 1013.9
20260505065807 53 160 0.0 0.0 0.00 0.00 0.00 79 1013.7
20260505065304 53 160 0.0 0.0 0.00 0.00 0.00 79 1013.9
20260505064801 53 160 0.0 0.0 0.00 0.00 0.00 79 1013.8
20260505064258 53 160 0.0 0.0 0.00 0.00 0.00 78 1013.8
20260505063756 53 160 0.0 0.0 0.00 0.00 0.00 78 1014.0
20260505063252 53 160 0.0 0.0 0.00 0.00 0.00 78 1014.0
20260505062749 54 160 0.0 0.0 0.00 0.00 0.00 78 1013.8
20260505062246 54 160 0.0 0.9 0.00 0.00 0.00 77 1013.9
20260505061742 54 160 0.0 0.0 0.00 0.00 0.00 77 1013.9
20260505061240 55 160 0.0 0.0 0.00 0.00 0.00 77 1014.0
20260505060737 54 160 0.0 0.0 0.00 0.00 0.00 77 1014.0
20260505060234 55 161 0.0 0.0 0.00 0.00 0.00 76 1014.0
20260505055724 55 161 0.0 0.0 0.00 0.00 0.00 76 1014.0
20260505055221 55 161 0.0 0.9 0.00 0.00 0.00 76 1013.9
20260505054718 55 161 0.0 0.0 0.00 0.00 0.00 75 1014.0
20260505054210 55 161 0.0 0.9 0.00 0.00 0.00 74 1014.1
20260505053708 55 161 0.0 0.0 0.00 0.00 0.00 74 1014.1
20260505053204 55 161 0.0 0.0 0.00 0.00 0.00 74 1014.2
20260505052701 55 161 0.0 0.0 0.00 0.00 0.00 74 1014.2
20260505052153 55 161 0.0 0.0 0.00 0.00 0.00 73 1014.1
20260505051649 55 161 0.0 0.0 0.00 0.00 0.00 73 1014.0
20260505051148 55 161 0.0 0.0 0.00 0.00 0.00 72 1014.1
20260505050645 55 161 0.0 0.9 0.00 0.00 0.00 72 1014.2
20260505050143 55 161 0.0 0.0 0.00 0.00 0.00 71 1014.1
20260505041613 57 161 0.0 0.0 0.00 0.00 0.00 69 1014.2
20260505041110 57 161 0.0 0.9 0.00 0.00 0.00 68 1014.1
20260505040607 57 161 0.0 0.0 0.00 0.00 0.00 68 1013.8
20260505040104 58 161 0.0 0.0 0.00 0.00 0.00 69 1013.9
20260505035601 58 161 0.0 0.0 0.00 0.00 0.00 69 1014.0
20260505035057 57 161 0.0 0.0 0.00 0.00 0.00 67 1013.9
20260505034554 58 161 0.0 0.0 0.00 0.00 0.00 67 1014.1
20260505034050 58 161 0.9 0.9 0.00 0.00 0.00 67 1014.2